Weather History for Escanaba, MI

Change the Weather History Date:

Saturday, September 21, 2013

  Actual Average Record
Temperature  
Mean Temperature 48 °F -  
Max Temperature 55 °F 61 °F 78 °F (2010)
Min Temperature 42 °F 47 °F 31 °F (1956)
Degree Days  
Heating Degree Days 16    
Moisture  
Dew Point 41 °F    
Average Humidity 73    
Maximum Humidity 93    
Minimum Humidity 51    
Precipitation  
Precipitation 0.00 in - - ()
Sea Level Pressure  
Sea Level Pressure 29.83 in    
Wind  
Wind Speed 7 mph (NW)    
Max Wind Speed 15 mph    
Max Gust Speed 24 mph    
Visibility 10 miles    
Events      
Averages and records for this station are not official NWS values.
T = Trace of Precipitation, MM = Missing Value Source: NWS Daily Summary

Daily Weather History Graph

Daily Weather History Graph

Search for Another Location

Airport:

Trip Planner

Search our weather history database for the weather conditions in past years. The results will help you decide how hot, cold, wet, or windy it might be!

Date:

Astronomy

Sep. 21, 2013 Rise Set
Actual Time 7:34 AM EDT 7:47 PM EDT
Civil Twilight 7:04 AM EDT 8:17 PM EDT
Nautical Twilight 6:29 AM EDT 8:51 PM EDT
Astronomical Twilight 5:53 AM EDT 9:27 PM EDT
Moon 8:47 PM EDT 10:01 AM EDT
Length of Visible Light 13h 12m
Length of Day
12h 12m
Waning Gibbous, 94% of the Moon is Illuminated
Sep 21
Waning Gibbous
Sep 26
Last Quarter
Oct 4
New
Oct 11
First Quarter
Oct 18
Full

Hourly Weather History & Observations

Time (EDT) Temp. Windchill Dew Point Humidity Pressure Visibility Wind Dir Wind Speed Gust Speed Precip Events Conditions
12:15 AM 53.6 °F - 48.2 °F 82% 29.75 in 10.0 mi NW 4.6 mph - N/A   Overcast
12:35 AM 53.6 °F - 46.4 °F 77% 29.75 in 10.0 mi WNW 4.6 mph - N/A   Overcast
12:55 AM 53.6 °F - 48.2 °F 82% 29.75 in 10.0 mi WNW 5.8 mph - N/A   Scattered Clouds
1:15 AM 51.8 °F - 48.2 °F 88% 29.75 in 10.0 mi WNW 4.6 mph - N/A   Mostly Cloudy
1:35 AM 51.8 °F - 48.2 °F 88% 29.75 in 10.0 mi West 4.6 mph - N/A   Overcast
1:55 AM 51.8 °F - 46.4 °F 82% 29.75 in 10.0 mi West 8.1 mph - N/A   Mostly Cloudy
2:15 AM 50.0 °F - 46.4 °F 87% 29.75 in 10.0 mi WNW 6.9 mph - N/A   Scattered Clouds
2:35 AM 50.0 °F - 46.4 °F 87% 29.76 in 10.0 mi WNW 6.9 mph - N/A   Scattered Clouds
2:55 AM 50.0 °F - 46.4 °F 87% 29.76 in 10.0 mi WNW 5.8 mph - N/A   Scattered Clouds
3:15 AM 48.2 °F - 46.4 °F 93% 29.77 in 10.0 mi WNW 5.8 mph - N/A   Partly Cloudy
3:35 AM 48.2 °F - 44.6 °F 87% 29.77 in 10.0 mi West 5.8 mph - N/A   Clear
3:55 AM 48.2 °F - 44.6 °F 87% 29.76 in 10.0 mi West 5.8 mph - N/A   Clear
4:15 AM 46.4 °F 43.5 °F 44.6 °F 93% 29.76 in 10.0 mi West 5.8 mph - N/A   Clear
4:35 AM 46.4 °F 44.3 °F 44.6 °F 93% 29.76 in 10.0 mi West 4.6 mph - N/A   Clear
4:55 AM 46.4 °F 44.3 °F 44.6 °F 93% 29.77 in 10.0 mi West 4.6 mph - N/A   Clear
5:15 AM 46.4 °F 45.2 °F 42.8 °F 87% 29.77 in 10.0 mi West 3.5 mph - N/A   Mostly Cloudy
5:35 AM 46.4 °F 43.5 °F 44.6 °F 93% 29.77 in 10.0 mi West 5.8 mph - N/A   Mostly Cloudy
5:55 AM 46.4 °F 42.9 °F 42.8 °F 87% 29.77 in 10.0 mi West 6.9 mph - N/A   Partly Cloudy
6:15 AM 46.4 °F 42.9 °F 44.6 °F 93% 29.77 in 10.0 mi WNW 6.9 mph - N/A   Scattered Clouds
6:35 AM 46.4 °F 41.9 °F 44.6 °F 93% 29.77 in 10.0 mi WNW 9.2 mph - N/A   Overcast
6:55 AM 48.2 °F - 44.6 °F 87% 29.78 in 10.0 mi WNW 8.1 mph - N/A   Overcast
7:15 AM 48.2 °F - 44.6 °F 87% 29.78 in 10.0 mi WNW 6.9 mph - N/A   Overcast
7:35 AM 48.2 °F - 44.6 °F 87% 29.79 in 10.0 mi NW 9.2 mph - N/A   Overcast
7:55 AM 48.2 °F - 44.6 °F 87% 29.80 in 10.0 mi NW 5.8 mph - N/A   Overcast
8:15 AM 48.2 °F - 44.6 °F 87% 29.79 in 10.0 mi WNW 5.8 mph - N/A   Overcast
8:35 AM 48.2 °F - 44.6 °F 87% 29.79 in 10.0 mi WNW 6.9 mph - N/A   Overcast
8:55 AM 48.2 °F - 44.6 °F 87% 29.80 in 10.0 mi WNW 6.9 mph - N/A   Mostly Cloudy
9:15 AM 48.2 °F - 44.6 °F 87% 29.80 in 10.0 mi NW 8.1 mph - N/A   Mostly Cloudy
9:35 AM 50.0 °F - 44.6 °F 82% 29.80 in 10.0 mi NNW 8.1 mph - N/A   Mostly Cloudy
9:55 AM 51.8 °F - 42.8 °F 71% 29.81 in 10.0 mi NNW 10.4 mph - N/A   Overcast
10:15 AM 51.8 °F - 42.8 °F 71% 29.82 in 10.0 mi NW 10.4 mph - N/A   Mostly Cloudy
10:35 AM 53.6 °F - 39.2 °F 58% 29.82 in 10.0 mi NNW 10.4 mph 21.9 mph N/A   Mostly Cloudy
10:55 AM 53.6 °F - 41.0 °F 62% 29.82 in 10.0 mi NW 10.4 mph - N/A   Mostly Cloudy
11:15 AM 53.6 °F - 39.2 °F 58% 29.82 in 10.0 mi NNW 12.7 mph 24.2 mph N/A   Mostly Cloudy
11:35 AM 53.6 °F - 37.4 °F 54% 29.82 in 10.0 mi NW 13.8 mph 23.0 mph N/A   Overcast
11:55 AM 53.6 °F - 39.2 °F 58% 29.83 in 10.0 mi North 15.0 mph 21.9 mph N/A   Scattered Clouds
12:15 PM 53.6 °F - 35.6 °F 51% 29.83 in 10.0 mi NNW 9.2 mph 18.4 mph N/A   Mostly Cloudy
12:35 PM 55.4 °F - 39.2 °F 54% 29.84 in 10.0 mi NNW 12.7 mph 18.4 mph N/A   Overcast
12:55 PM 53.6 °F - 37.4 °F 54% 29.84 in 10.0 mi NW 6.9 mph - N/A   Overcast
1:15 PM 53.6 °F - 37.4 °F 54% 29.84 in 10.0 mi NW 13.8 mph 21.9 mph N/A   Overcast
1:35 PM 53.6 °F - 39.2 °F 58% 29.85 in 10.0 mi NW 9.2 mph - N/A   Mostly Cloudy
1:55 PM 53.6 °F - 37.4 °F 54% 29.85 in 10.0 mi North 9.2 mph - N/A   Overcast
2:15 PM 53.6 °F - 39.2 °F 58% 29.86 in 10.0 mi NNW 5.8 mph - N/A   Overcast
2:35 PM 53.6 °F - 39.2 °F 58% 29.85 in 10.0 mi NW 10.4 mph - N/A   Overcast
2:55 PM 53.6 °F - 37.4 °F 54% 29.85 in 10.0 mi NNW 11.5 mph 16.1 mph N/A   Overcast
3:15 PM 53.6 °F - 39.2 °F 58% 29.85 in 10.0 mi NNW 9.2 mph - N/A   Overcast
3:35 PM 53.6 °F - 37.4 °F 54% 29.86 in 10.0 mi NW 10.4 mph - N/A   Overcast
3:55 PM 53.6 °F - 37.4 °F 54% 29.86 in 10.0 mi WNW 11.5 mph 17.3 mph N/A   Overcast
4:15 PM 53.6 °F - 39.2 °F 58% 29.86 in 10.0 mi NW 10.4 mph - N/A   Overcast
4:35 PM 53.6 °F - 37.4 °F 54% 29.86 in 10.0 mi NW 11.5 mph 17.3 mph N/A   Overcast
4:55 PM 53.6 °F - 39.2 °F 58% 29.87 in 10.0 mi NNW 9.2 mph - N/A   Overcast
5:15 PM 53.6 °F - 37.4 °F 54% 29.87 in 10.0 mi North 9.2 mph - N/A   Overcast
5:35 PM 53.6 °F - 39.2 °F 58% 29.87 in 10.0 mi NNW 9.2 mph - N/A   Overcast
5:55 PM 51.8 °F - 39.2 °F 62% 29.88 in 10.0 mi NNW 9.2 mph - N/A   Overcast
6:15 PM 51.8 °F - 37.4 °F 58% 29.88 in 10.0 mi NNW 8.1 mph - N/A   Overcast
6:35 PM 51.8 °F - 37.4 °F 58% 29.89 in 10.0 mi NNW 10.4 mph - N/A   Overcast
6:55 PM 50.0 °F - 37.4 °F 62% 29.89 in 10.0 mi NNW 9.2 mph - N/A   Overcast
7:15 PM 50.0 °F - 37.4 °F 62% 29.90 in 10.0 mi North 8.1 mph - N/A   Overcast
7:35 PM 48.2 °F - 37.4 °F 66% 29.90 in 10.0 mi NNW 3.5 mph - N/A   Overcast
7:55 PM 48.2 °F - 37.4 °F 66% 29.90 in 10.0 mi NNW 6.9 mph - N/A   Overcast
8:15 PM 48.2 °F - 37.4 °F 66% 29.91 in 10.0 mi NNW 4.6 mph - N/A   Overcast
8:35 PM 48.2 °F - 37.4 °F 66% 29.91 in 10.0 mi NNW 5.8 mph - N/A   Overcast
8:55 PM 48.2 °F - 37.4 °F 66% 29.92 in 10.0 mi NW 6.9 mph - N/A   Overcast
9:15 PM 48.2 °F - 37.4 °F 66% 29.93 in 10.0 mi NW 5.8 mph - N/A   Overcast
9:35 PM 46.4 °F 43.5 °F 37.4 °F 71% 29.93 in 10.0 mi NW 5.8 mph - N/A   Mostly Cloudy
9:55 PM 44.6 °F 41.4 °F 37.4 °F 76% 29.94 in 10.0 mi NW 5.8 mph - N/A   Partly Cloudy
10:15 PM 44.6 °F 41.4 °F 37.4 °F 76% 29.94 in 10.0 mi NW 5.8 mph - N/A   Scattered Clouds
10:35 PM 44.6 °F 43.1 °F 37.4 °F 76% 29.94 in 10.0 mi NNW 3.5 mph - N/A   Partly Cloudy
10:55 PM 42.8 °F 41.1 °F 35.6 °F 76% 29.95 in 10.0 mi NW 3.5 mph - N/A   Mostly Cloudy
11:15 PM 42.8 °F 41.1 °F 37.4 °F 81% 29.96 in 10.0 mi NNW 3.5 mph - N/A   Mostly Cloudy
11:35 PM 42.8 °F 41.1 °F 37.4 °F 81% 29.96 in 10.0 mi NW 3.5 mph - N/A   Mostly Cloudy
11:55 PM 42.8 °F 39.3 °F 37.4 °F 81% 29.96 in 10.0 mi NW 5.8 mph - N/A   Overcast